Facebook Twitter

Wetterstation Station: 113890

aktuelles Wetter
  Temperatur Wetter Niederschlag Luftdruck Wind
Sa, 04:00 Uhr 6° Schauer 0.3 mm 1008 hPa 22 km/h SW
Sa, 03:00 Uhr 5° - 0.0 mm 1008 hPa 18 km/h SW
Sa, 02:00 Uhr 5° - 2 mm 1008 hPa 22 km/h SW
Sa, 01:00 Uhr 5° - 0.1 mm 1008 hPa 22 km/h SW
Sa, 00:00 Uhr 5° - 0.1 mm 1008 hPa 18 km/h SW
Fr, 23:00 Uhr 6° - 2 mm 1009 hPa 14 km/h SW
Fr, 22:00 Uhr 6° - 1 mm 1009 hPa 14 km/h SW
Fr, 21:00 Uhr 6° - 0.4 mm 1010 hPa 11 km/h SW
Fr, 20:00 Uhr 6° 2 mm 1010 hPa 14 km/h SW

Böen 58 km/h
Fr, 19:00 Uhr 8° Schauer 0.1 mm 1009 hPa 14 km/h SW
Fr, 18:00 Uhr 8° - 0 mm 1010 hPa 14 km/h SW

Böen 50 km/h
Fr, 17:00 Uhr 7° - 0.5 mm 1010 hPa 25 km/h W

Böen 58 km/h
Fr, 16:00 Uhr 10° 0 mm 1010 hPa 25 km/h SW
Fr, 15:00 Uhr 8° - 0.1 mm 1012 hPa 25 km/h W

Böen 58 km/h
Fr, 14:00 Uhr 7° 0.5 mm 1014 hPa 25 km/h SW

Böen 50 km/h
Fr, 13:00 Uhr 7° - 0.1 mm 1015 hPa 22 km/h SW
Fr, 12:00 Uhr 9° - 0 mm 1015 hPa 18 km/h SW
Fr, 11:00 Uhr 7° - 0 mm 1016 hPa 25 km/h SW

Böen 50 km/h
Fr, 10:00 Uhr 7° 0 mm 1016 hPa 25 km/h SW

Böen 50 km/h
Fr, 09:00 Uhr 6° - 0 mm 1017 hPa 25 km/h SW

Alle Zeitangaben MESZ